COSMOS 2582

导读

COSMOS 2582是独联体(CIS)于2025年2月5日发射的俄罗斯宇宙系列卫星,它与Kosmos 2581、Kosmos 2583一道,由联盟-2.1V火箭从普列谢茨克航天发射场发射入轨,运行在地球上方约585公里的近极轨道。作为俄罗斯保密军事卫星系列成员,该卫星具体任务未公开披露,入轨后曾展现特殊活动,引发空间观测领域广泛关注。

Basic Information
目录编号:
62903
目录名称:
COSMOS 2582
国际标识:
2025-026B
轨道中心:
EARTH
卫星名称:
COSMOS 2582
卫星全名:
COSMOS 2582
卫星状态:
在轨 (已飞行494 天)
发射日期:
2025-02-05 UTC
国别 :
俄罗斯(独联体) (CIS)
星等 :
--
Orbit Information
数据来源 国际轨道数据 AOE轨道数据
星历时间 2026-06-15T01:53:38+0800
4小时前
查看轨道信息
2026-06-14T02:00:00+0800
1天前
查看轨道信息
半长轴 6960.552km 6960.559km
偏心率 0.0011489 0.0011359
轨道倾角 81.996° 81.997°
近地点辐角 67.091° 74.324°
升交点赤经 76.990° 78.005°
平近点角 293.153° 331.072°
近地点 574.418km 574.515km
远地点 590.412km 590.329km
周期 96.322分钟 96.322分钟
每日圈数 14.949864 14.949844
Detailed Information
使用方式:
暂无
2D Orbit Map
3D Orbit Map
Orbit Altitude Analysis Chart
Orbit Inclination Analysis Chart
Orbit Comprehensive Analysis Chart
View Comprehensive Chart